Location: Shenandoah County Park
(38.9356°N, 78.4524°W)
Time: 18:30:30
(UTC-05:00)

A-11 Canister half - Pass Details

Date: 14 December 2023
Orbit: 1526 x 1682 km, 47.3° (Epoch: 01 March)

Event Time Altitude Azimuth Distance (km) Brightness Sun altitude
Rises 13:39:48 0° 175° (S) 4,837 12.6 24.3°
Reaches altitude 10° 13:44:36 10° 156° (SSE) 3,882 11.8 23.9°
Maximum altitude 13:49:56 16° 122° (ESE) 3,452 11.1 23.5°
Drops below altitude 10° 13:55:19 10° 89° (E) 3,934 11.0 23.0°
Sets 14:00:11 0° 70° (ENE) 4,935 11.2 22.6°
